Location: Dilsberg
(49.3983°N, 8.8354°E)
Time: 09:32:49
(UTC+00:00)

Cosmos 1842 - Pass Details

Date: 19 May 2025
Orbit: 439 x 450 km, 82.5° (Epoch: 23 June)

Event Time Altitude Azimuth Distance (km) Brightness Sun altitude
Exits shadow 23:40:39 24° 272° (W) 970 4.5 -20.5°
Maximum altitude 23:41:11 26° 288° (WNW) 942 4.6 -20.5°
Drops below altitude 10° 23:44:09 10° 347° (NNW) 1,600 6.7 -20.4°
Sets 23:46:29 0° 0° (N) 2,479 8.2 -20.4°
